TimeCDT,TemperatureF,Dew PointF,Humidity,Sea Level PressureIn,VisibilityMPH,Wind Direction,Wind SpeedMPH,Gust SpeedMPH,PrecipitationIn,Events,Conditions,WindDirDegrees,DateUTC
12:15 AM,62.6,55.4,77,29.98,10.0,North,3.5,-,N/A,,Clear,350,2013-06-03 05:15:00
12:35 AM,60.8,55.4,82,29.99,10.0,North,3.5,-,N/A,,Clear,350,2013-06-03 05:35:00
12:55 AM,60.8,55.4,82,29.99,10.0,Calm,Calm,-,N/A,,Clear,0,2013-06-03 05:55:00
1:15 AM,60.8,55.4,82,30.00,10.0,North,3.5,-,N/A,,Clear,350,2013-06-03 06:15:00
1:35 AM,60.8,55.4,82,29.99,10.0,Calm,Calm,-,N/A,,Clear,0,2013-06-03 06:35:00
1:55 AM,60.8,55.4,82,30.00,10.0,Calm,Calm,-,N/A,,Clear,0,2013-06-03 06:55:00
2:15 AM,60.8,55.4,82,29.99,10.0,Calm,Calm,-,N/A,,Clear,0,2013-06-03 07:15:00
2:35 AM,59.0,55.4,88,29.99,10.0,Calm,Calm,-,N/A,,Clear,0,2013-06-03 07:35:00
2:55 AM,59.0,55.4,88,30.00,10.0,Calm,Calm,-,N/A,,Clear,0,2013-06-03 07:55:00
3:15 AM,59.0,55.4,88,30.01,10.0,Calm,Calm,-,N/A,,Clear,0,2013-06-03 08:15:00
3:35 AM,59.0,55.4,88,30.00,10.0,Calm,Calm,-,N/A,,Clear,0,2013-06-03 08:35:00
3:55 AM,59.0,53.6,82,30.00,10.0,Calm,Calm,-,N/A,,Clear,0,2013-06-03 08:55:00
4:15 AM,60.8,55.4,82,30.00,10.0,Calm,Calm,-,N/A,,Clear,0,2013-06-03 09:15:00
4:35 AM,59.0,53.6,82,30.00,10.0,NNE,3.5,-,N/A,,Clear,20,2013-06-03 09:35:00
4:55 AM,59.0,53.6,82,30.01,10.0,North,3.5,-,N/A,,Clear,360,2013-06-03 09:55:00
5:15 AM,59.0,55.4,88,30.00,10.0,NNE,3.5,-,N/A,,Clear,20,2013-06-03 10:15:00
5:35 AM,59.0,53.6,82,30.00,10.0,Calm,Calm,-,N/A,,Clear,0,2013-06-03 10:35:00
5:55 AM,59.0,55.4,88,30.00,10.0,NNE,3.5,-,N/A,,Clear,20,2013-06-03 10:55:00
6:15 AM,59.0,55.4,88,30.00,10.0,NNE,3.5,-,N/A,,Clear,20,2013-06-03 11:15:00
6:35 AM,59.0,55.4,88,30.00,10.0,Calm,Calm,-,N/A,,Clear,0,2013-06-03 11:35:00
6:55 AM,60.8,55.4,82,30.00,10.0,Calm,Calm,-,N/A,,Clear,0,2013-06-03 11:55:00
7:15 AM,62.6,55.4,77,30.00,10.0,NE,3.5,-,N/A,,Clear,40,2013-06-03 12:15:00
7:35 AM,64.4,59.0,83,30.00,10.0,NE,3.5,-,N/A,,Clear,50,2013-06-03 12:35:00
7:55 AM,66.2,59.0,78,30.00,10.0,ENE,6.9,-,N/A,,Clear,70,2013-06-03 12:55:00
8:15 AM,68.0,59.0,73,30.00,10.0,East,5.8,-,N/A,,Clear,80,2013-06-03 13:15:00
8:35 AM,69.8,59.0,68,30.01,10.0,East,6.9,-,N/A,,Clear,80,2013-06-03 13:35:00
8:55 AM,69.8,59.0,68,30.00,10.0,East,5.8,-,N/A,,Clear,100,2013-06-03 13:55:00
9:15 AM,71.6,60.8,69,29.99,10.0,East,6.9,-,N/A,,Clear,100,2013-06-03 14:15:00
9:35 AM,71.6,60.8,69,30.00,10.0,SE,6.9,-,N/A,,Clear,130,2013-06-03 14:35:00
9:55 AM,73.4,60.8,65,29.99,10.0,SSE,5.8,-,N/A,,Clear,150,2013-06-03 14:55:00
10:15 AM,73.4,60.8,65,30.00,10.0,SSE,4.6,-,N/A,,Clear,150,2013-06-03 15:15:00
10:35 AM,75.2,59.0,57,30.00,10.0,SSE,3.5,-,N/A,,Clear,150,2013-06-03 15:35:00
10:55 AM,77.0,59.0,54,29.99,10.0,South,5.8,-,N/A,,Clear,170,2013-06-03 15:55:00
11:15 AM,78.8,55.4,44,29.99,10.0,SSE,5.8,-,N/A,,Clear,160,2013-06-03 16:15:00
11:35 AM,78.8,55.4,44,29.99,10.0,SE,6.9,-,N/A,,Clear,140,2013-06-03 16:35:00
11:55 AM,78.8,53.6,42,29.98,10.0,SE,5.8,-,N/A,,Clear,130,2013-06-03 16:55:00
12:15 PM,80.6,57.2,45,29.97,10.0,SSE,5.8,-,N/A,,Clear,150,2013-06-03 17:15:00
12:35 PM,80.6,55.4,42,29.97,10.0,SSE,8.1,-,N/A,,Clear,160,2013-06-03 17:35:00
12:55 PM,80.6,55.4,42,29.96,10.0,Calm,Calm,-,N/A,,Clear,0,2013-06-03 17:55:00
1:15 PM,80.6,55.4,42,29.95,10.0,SSE,6.9,-,N/A,,Clear,160,2013-06-03 18:15:00
1:35 PM,82.4,55.4,39,29.94,10.0,Calm,Calm,-,N/A,,Clear,0,2013-06-03 18:35:00
1:55 PM,82.4,57.2,42,29.93,10.0,Calm,Calm,-,N/A,,Clear,0,2013-06-03 18:55:00
2:15 PM,84.2,57.2,40,29.93,10.0,SSW,6.9,-,N/A,,Clear,210,2013-06-03 19:15:00
2:35 PM,84.2,57.2,40,29.92,10.0,SE,4.6,-,N/A,,Clear,140,2013-06-03 19:35:00
2:55 PM,86.0,57.2,37,29.92,10.0,SSE,4.6,-,N/A,,Clear,150,2013-06-03 19:55:00
3:15 PM,84.2,55.4,37,29.91,10.0,SSE,4.6,-,N/A,,Clear,160,2013-06-03 20:15:00
3:35 PM,86.0,55.4,35,29.90,10.0,ESE,3.5,-,N/A,,Clear,120,2013-06-03 20:35:00
3:55 PM,86.0,55.4,35,29.90,10.0,SSE,8.1,-,N/A,,Clear,160,2013-06-03 20:55:00
4:15 PM,86.0,55.4,35,29.90,10.0,South,5.8,-,N/A,,Clear,170,2013-06-03 21:15:00
4:35 PM,86.0,55.4,35,29.89,10.0,Calm,Calm,-,N/A,,Clear,0,2013-06-03 21:35:00
5:15 PM,86.0,55.4,35,29.88,10.0,SE,4.6,-,N/A,,Clear,140,2013-06-03 22:15:00
5:35 PM,86.0,55.4,35,29.87,10.0,SSE,5.8,-,N/A,,Clear,150,2013-06-03 22:35:00
5:55 PM,86.0,55.4,35,29.87,10.0,SE,5.8,-,N/A,,Clear,130,2013-06-03 22:55:00
6:15 PM,86.0,55.4,35,29.87,10.0,Calm,Calm,-,N/A,,Clear,0,2013-06-03 23:15:00
6:35 PM,86.0,53.6,33,29.87,10.0,Calm,Calm,-,N/A,,Clear,0,2013-06-03 23:35:00
6:55 PM,84.2,55.4,37,29.87,10.0,Calm,Calm,-,N/A,,Clear,0,2013-06-03 23:55:00
7:15 PM,82.4,55.4,39,29.87,10.0,Calm,Calm,-,N/A,,Clear,0,2013-06-04 00:15:00
7:35 PM,82.4,57.2,42,29.87,10.0,Calm,Calm,-,N/A,,Clear,0,2013-06-04 00:35:00
7:55 PM,80.6,59.0,48,29.87,10.0,Calm,Calm,-,N/A,,Clear,0,2013-06-04 00:55:00
8:15 PM,78.8,59.0,51,29.88,10.0,Calm,Calm,-,N/A,,Clear,0,2013-06-04 01:15:00
8:35 PM,77.0,59.0,54,29.88,10.0,Calm,Calm,-,N/A,,Clear,0,2013-06-04 01:35:00
8:55 PM,75.2,60.8,61,29.88,10.0,Calm,Calm,-,N/A,,Clear,0,2013-06-04 01:55:00
9:15 PM,75.2,60.8,61,29.89,10.0,ESE,3.5,-,N/A,,Clear,110,2013-06-04 02:15:00
9:35 PM,73.4,60.8,65,29.89,10.0,Calm,Calm,-,N/A,,Clear,0,2013-06-04 02:35:00
9:55 PM,73.4,60.8,65,29.89,10.0,Calm,Calm,-,N/A,,Clear,0,2013-06-04 02:55:00
10:15 PM,73.4,60.8,65,29.89,10.0,ESE,5.8,-,N/A,,Clear,110,2013-06-04 03:15:00
10:35 PM,73.4,60.8,65,29.90,10.0,ESE,5.8,-,N/A,,Clear,110,2013-06-04 03:35:00
10:55 PM,73.4,60.8,65,29.90,10.0,ESE,4.6,-,N/A,,Clear,110,2013-06-04 03:55:00
11:15 PM,71.6,60.8,69,29.91,10.0,East,3.5,-,N/A,,Clear,100,2013-06-04 04:15:00
11:35 PM,69.8,60.8,73,29.91,10.0,Calm,Calm,-,N/A,,Clear,0,2013-06-04 04:35:00
11:55 PM,69.8,60.8,73,29.91,10.0,Calm,Calm,-,N/A,,Clear,0,2013-06-04 04:55:00